Temperature
18 18 18 18 18 18 18 18 18 18 18 18 18 18 18 18 18 18 18 18 18 18 18 18 18 18 18 18 18 18 18 18 18 18 18 18 18 18 18 18 18 18 18
18 18 18 18 18 18 18 18 18 18 18 18 18 18 18 18 18 18 18 18 18 18 18 18 18 18 18 18 18 18 18 18 18 18 18 18 18 18 18 18 18 18 18
18 18 18 18 18 18 18 18 18 18 18 18 18 18 18 18 18 18 18 18 18 18 18 18 18 18 18 18 18 18 18 18 18 18 18 18 18 18 18 18 18 18 18
18 18 18 18 18 18 18 18 18 18 18 18 18 18 18 18 18 18 18 18 18 18 18 18 18 18 18 18 18 18 18 18 18 18 18 18 18 17 18 18 17 17 17
18 18 18 18 18 18 18 18 18 18 18 18 18 17 17 17 18 18 18 18 18 18 18 18 18 18 18 17 17 17 17 17 17 18 18 17 17 17 17 17 17 17 17
18 18 18 18 18 18 18 18 18 18 18 18 18 17 17 17 17 18 18 18 18 18 18 17 17 17 17 17 17 17 17 17 17 17 17 17 17 17 17 17 17 17 17
18 18 18 18 18 18 18 17 17 17 17 17 17 17 17 17 17 17 17 17 17 17 17 17 17 17 17 17 17 17 17 17 17 17 17 17 17 17 17 17 17 17 17
18 18 18 18 18 18 18 17 17 17 17 17 17 17 17 17 17 17 17 17 17 17 17 17 17 17 17 17 17 17 17 17 17 17 17 17 17 17 17 17 17 17 17
18 18 18 18 18 18 18 17 17 17 17 17 17 17 17 17 17 17 17 17 17 17 17 17 17 17 17 17 17 17 17 17 17 17 16 16 16 16 16 17 16 17 17
18 18 18 18 18 18 17 17 17 17 17 17 17 17 17 17 17 17 17 17 17 17 17 16 16 16 16 16 16 16 16 17 16 16 16 16 16 16 16 16 16 16 16
18 18 18 18 18 18 17 17 17 17 17 17 17 17 17 17 17 17 16 16 16 16 16 16 16 16 16 16 16 16 16 16 16 16 16 16 16 16 16 16 16 16 16
18 18 18 18 18 18 18 17 17 17 17 17 17 17 17 17 16 16 16 16 16 16 16 16 16 16 16 16 16 16 16 16 16 16 16 16 16 16 16 16 16 15 15
19 18 18 18 18 18 18 17 17 17 17 17 17 17 17 17 16 16 16 16 16 16 16 16 16 16 16 16 16 16 16 16 16 16 15 15 15 15 15 15 15 15 15
19 18 18 18 18 18 18 17 17 17 17 17 17 17 17 17 16 16 16 16 16 16 16 16 16 16 16 16 16 16 16 16 15 15 15 15 15 15 15 15 15 15 15
19 19 18 18 18 18 18 18 17 17 17 17 17 17 17 17 16 16 16 16 16 16 16 16 16 15 16 16 15 15 15 15 15 15 15 15 15 15 15 15 15 15 15
19 19 18 18 18 18 18 18 17 17 17 17 17 17 17 17 16 16 16 16 16 16 16 16 15 15 15 15 15 15 15 15 15 15 15 15 15 15 15 14 14 14 14
19 19 19 18 18 18 18 18 18 17 17 17 17 17 17 16 16 16 16 16 16 15 15 15 15 15 15 15 15 15 15 15 15 15 15 15 14 14 14 14 14 14 14
19 19 19 18 18 18 18 18 18 17 17 17 17 17 17 16 16 16 16 16 16 15 15 15 15 15 15 15 15 15 14 14 14 14 14 14 14 14 14 14 14 14 13
19 19 19 19 18 18 18 18 18 17 17 17 17 17 17 16 16 16 16 16 15 15 15 15 15 15 15 15 15 14 14 14 14 14 14 14 14 14 14 14 13 13 13
19 19 19 19 18 18 18 18 17 17 17 17 17 17 16 16 16 16 16 16 15 15 15 15 15 15 15 15 14 14 14 14 13 13 13 13 13 13 13 13 13 13 13
19 19 19 19 18 18 18 18 18 17 17 17 17 17 16 16 16 16 16 16 15 15 15 15 15 14 14 14 14 14 13 13 13 13 13 13 13 13 13 13 13 13 13
19 19 19 19 18 18 18 18 18 17 17 17 17 16 16 16 16 16 16 16 15 15 15 15 15 14 14 14 14 14 13 13 13 13 13 13 13 13 13 13 13 12 12
19 19 19 18 18 18 18 18 17 17 17 17 16 16 16 16 16 16 16 15 15 15 15 15 15 15 14 14 14 14 13 13 12 12 12 12 12 12 12 12 12 12 12
19 19 19 18 18 18 18 18 17 17 17 16 16 16 16 16 16 15 15 15 15 15 15 15 14 14 14 14 14 14 13 13 13 12 12 12 12 12 12 12 12 12 12
19 18 18 18 18 18 18 17 17 17 17 16 16 16 16 16 15 15 15 15 15 15 15 15 14 14 14 14 14 14 13 13 13 13 12 12 12 12 12 12 12 12 12
18 18 18 18 18 18 17 17 17 17 17 16 16 16 16 15 15 15 15 15 15 15 15 14 14 14 14 14 14 14 13 13 13 13 13 12 12 12 12 11 11 11 11
Wind_Speed
1 2 7 8 9 9 9 10 10 11 11 12 12 13 13 13 13 13 13 13 13 12 12 11 11 11 10 10 10 10 10 9 9 8 7 6 6 6 7 6 6 5 7
5 4 7 8 9 9 9 10 11 11 11 12 12 12 12 13 13 13 13 13 14 13 13 12 11 11 10 10 10 10 9 9 9 8 7 5 5 6 6 6 7 6 7
6 6 7 9 10 10 10 10 11 11 11 12 12 12 12 13 13 13 13 13 14 13 13 12 12 11 11 11 10 10 10 10 9 8 7 5 5 6 6 6 6 7 6
7 7 8 9 10 10 11 11 11 11 11 12 12 12 12 12 12 12 13 13 13 13 13 12 12 12 12 11 11 10 10 10 9 8 6 5 4 6 6 6 6 6 5
7 7 8 10 10 10 10 11 11 11 11 11 12 12 13 12 12 12 12 12 13 13 13 12 12 12 12 12 11 11 11 11 10 7 5 5 4 5 6 6 6 6 5
6 7 9 10 10 10 11 11 11 11 11 11 11 12 12 13 13 12 12 12 12 12 12 12 12 12 12 12 11 11 11 10 9 7 6 5 4 5 5 5 6 6 6
6 7 9 10 10 10 10 10 10 11 11 11 11 11 12 12 12 12 11 11 11 11 12 11 11 11 11 11 11 11 11 10 8 6 6 5 4 5 5 6 6 6 6
7 7 8 10 10 10 10 10 10 10 10 11 11 11 11 11 11 11 11 11 11 11 11 11 11 11 11 11 12 11 10 9 7 6 5 5 5 6 6 6 7 7 6
7 7 6 7 8 9 10 10 10 10 10 10 10 10 10 10 10 11 11 10 11 11 10 11 10 10 11 12 13 13 13 12 9 6 6 5 5 6 7 7 7 7 7
5 5 5 5 6 7 7 8 9 10 10 9 10 10 9 9 9 9 9 9 9 9 9 9 9 10 11 12 13 13 13 12 10 8 6 6 8 8 8 8 8 8 8
5 4 5 4 5 6 6 7 8 8 8 8 8 9 8 6 6 6 7 8 8 8 9 9 9 10 11 12 13 12 11 9 8 7 7 9 10 10 9 9 8 8 9
6 6 5 5 5 5 5 6 5 5 5 5 5 5 6 5 5 5 6 6 6 7 7 8 9 9 10 9 10 10 8 9 8 6 7 10 10 11 11 10 10 9 10
7 7 6 6 5 5 3 4 4 4 4 4 4 5 6 5 5 5 5 5 5 6 6 6 7 7 8 7 7 8 8 8 7 6 8 10 11 11 11 11 11 9 9
7 6 7 7 6 5 4 3 4 4 3 3 3 6 6 4 3 3 3 3 3 4 4 4 4 6 7 8 8 7 8 7 7 6 8 10 11 11 11 11 11 10 10
7 7 7 8 7 6 4 3 4 4 4 4 5 5 7 4 3 2 2 2 2 3 3 3 4 5 5 6 7 7 6 7 7 7 7 10 10 11 11 11 10 10 10
7 7 6 8 8 7 5 4 4 4 5 5 5 6 7 6 4 3 2 2 2 3 4 4 4 4 4 4 5 5 6 6 6 7 7 8 10 11 10 10 10 10 10
7 7 7 8 8 7 6 5 5 5 5 4 4 6 8 7 6 4 3 3 2 4 5 5 5 5 4 5 5 4 5 5 5 6 7 8 8 10 11 10 9 10 11
8 7 7 8 8 7 6 5 5 5 5 4 5 6 7 8 7 5 3 3 3 5 4 4 4 4 4 4 4 3 4 4 4 5 6 7 7 8 9 11 11 10 11
8 8 7 7 8 7 6 5 5 5 4 4 5 5 6 7 7 6 4 3 5 4 3 4 3 3 4 4 3 4 4 3 3 5 5 5 6 7 7 8 10 10 10
7 7 7 7 7 6 5 4 4 3 3 3 4 5 6 7 7 6 4 4 4 4 3 3 4 3 3 3 4 5 4 3 3 4 4 4 5 6 7 7 7 8 10
6 7 7 7 6 6 4 4 4 3 2 2 2 4 6 7 7 6 4 3 4 4 3 4 4 4 3 3 4 4 4 5 4 3 3 3 4 4 6 6 6 6 6
5 6 6 7 7 6 5 4 4 4 3 2 2 3 5 6 6 6 5 4 3 3 3 3 4 3 1 2 3 3 2 4 4 4 3 3 3 3 4 4 5 5 5
5 6 7 6 6 6 6 5 4 4 3 2 1 1 2 5 5 5 5 4 4 4 3 3 4 4 2 0 1 3 3 1 1 3 3 3 2 2 2 3 4 4 4
5 5 6 6 6 5 6 7 7 5 4 2 2 2 1 3 4 4 5 4 3 3 3 3 3 3 4 2 0 1 2 4 2 0 2 3 2 2 2 1 2 3 3
5 5 6 6 6 6 6 7 7 5 4 2 2 3 2 2 3 4 4 4 4 3 3 3 3 3 3 3 2 1 2 2 2 3 1 2 2 2 2 1 1 2 3
4 4 5 6 5 5 5 6 6 7 6 5 4 3 2 1 1 2 4 3 3 3 3 3 3 4 3 3 2 2 3 2 2 2 2 1 1 2 2 1 0 0 1
Wind_Direction
138 128 102 96 91 84 82 84 84 84 82 80 78 76 75 78 81 81 82 80 82 91 93 90 89 90 90 92 97 96 98 98 98 98 97 103 107 115 121 120 112 107 113
151 122 107 99 94 90 87 89 88 87 86 83 81 80 78 79 80 82 84 83 83 85 85 85 85 84 86 91 95 94 95 99 99 90 85 90 101 109 115 117 117 113 117
132 119 110 104 98 93 92 93 93 90 90 88 85 84 82 82 82 81 83 84 84 84 83 81 81 80 82 86 88 88 90 94 96 86 75 70 91 108 114 115 116 111 112
131 125 114 109 102 95 92 94 94 92 93 92 90 88 87 87 85 82 82 83 83 83 82 80 78 79 80 80 81 83 86 87 85 78 67 69 87 106 114 116 117 116 111
129 128 120 113 106 99 95 95 95 93 93 93 92 90 89 89 89 86 83 83 83 83 84 82 79 79 78 76 75 79 81 80 77 67 66 68 82 108 113 112 113 113 109
131 130 126 118 110 104 99 97 98 97 96 95 94 93 91 90 89 90 88 85 85 85 84 83 80 77 74 72 72 76 79 76 68 60 65 71 82 103 107 103 108 109 105
138 134 130 124 118 112 106 103 101 99 97 96 95 95 92 91 91 92 90 88 88 89 85 82 80 76 72 69 72 77 78 70 64 60 62 70 89 107 105 97 101 103 100
142 137 132 131 126 120 114 110 105 101 99 96 96 98 95 94 92 92 92 90 91 89 87 84 82 75 69 67 69 72 68 66 65 64 60 65 89 101 102 97 96 100 99
138 134 132 135 132 129 125 118 111 106 103 99 99 100 97 94 93 93 89 89 91 89 88 85 83 77 72 70 70 69 65 63 57 55 63 59 84 94 97 98 95 92 92
131 132 136 140 137 131 130 127 116 111 107 103 101 102 100 96 94 93 89 88 91 90 88 85 81 78 74 72 74 69 64 58 53 51 49 61 77 87 91 92 93 91 90
142 144 145 145 139 137 142 136 126 118 114 109 102 100 98 93 92 90 89 86 89 89 86 86 83 80 74 72 74 69 61 55 52 52 52 67 73 76 81 83 90 89 87
160 161 157 159 156 150 146 134 128 125 122 113 107 103 105 98 94 92 84 80 80 79 76 79 79 72 70 70 68 65 63 57 54 51 57 68 71 71 69 71 77 87 86
163 159 163 166 160 160 145 138 132 126 124 115 110 109 107 95 90 87 78 69 63 60 58 64 64 64 69 74 76 71 68 63 54 50 56 65 68 68 67 67 71 83 84
156 161 163 166 159 156 142 138 136 130 129 126 122 123 114 101 91 94 83 74 61 59 60 67 71 66 71 79 83 77 68 67 59 54 59 64 66 68 69 68 70 82 83
158 165 161 159 158 151 142 141 133 134 139 145 132 133 124 115 112 106 83 75 67 73 85 83 80 80 77 76 81 81 69 64 62 59 59 65 68 70 70 68 69 75 80
167 165 157 155 156 148 144 139 138 139 138 134 130 142 139 132 123 112 90 79 72 87 96 93 91 93 84 82 79 81 79 71 65 62 59 59 62 65 66 69 73 73 77
168 162 156 156 155 149 145 147 139 142 140 133 135 141 140 139 133 119 100 83 82 91 91 87 79 84 85 79 73 75 80 75 72 65 61 58 58 60 62 68 73 71 77
164 160 159 153 152 150 144 142 136 139 133 131 135 136 137 138 135 121 105 97 98 97 92 87 79 77 75 72 70 64 65 73 71 70 65 61 59 56 56 61 66 70 75
168 160 153 147 147 147 142 136 132 130 123 126 132 127 132 137 135 124 113 109 107 93 79 90 80 88 88 80 79 63 55 62 65 75 69 65 61 59 57 55 58 62 69
168 157 151 145 145 138 129 116 110 105 110 114 123 133 134 136 133 125 115 109 106 97 83 84 88 72 86 92 83 61 43 42 50 60 64 64 63 62 61 59 55 54 59
160 153 153 151 152 142 133 129 136 145 145 130 127 132 133 136 135 128 121 117 109 111 119 115 105 90 67 82 77 51 28 32 39 42 47 58 53 55 59 56 56 55 50
155 162 162 160 160 160 155 149 151 152 150 150 128 117 131 138 144 141 136 136 128 118 109 110 112 107 97 89 105 91 40 10 11 26 31 50 44 53 58 56 61 59 50
149 168 171 162 164 161 151 128 113 94 80 73 90 123 138 150 150 147 146 141 141 138 144 145 141 132 141 68 106 128 131 192 317 351 12 23 27 38 36 55 64 59 52
168 166 163 157 155 154 148 145 145 146 150 173 169 162 141 134 137 140 142 140 145 145 153 164 148 144 140 147 100 84 145 152 148 320 341 348 3 19 2 48 68 64 59
156 154 159 153 152 150 151 155 154 154 159 151 140 141 146 135 140 140 140 138 147 152 159 158 145 144 145 155 163 155 108 85 115 144 235 319 348 338 342 3 91 75 67
140 139 145 145 148 149 149 156 163 163 160 151 159 164 164 154 155 147 143 147 154 154 162 164 157 155 159 156 159 156 153 155 175 156 184 236 281 302 316 330 349 85 74
Height
1521 1520 1520 1519 1518 1517 1517 1516 1516 1515 1515 1515 1514 1514 1514 1513 1513 1512 1511 1510 1508 1508 1510 1512 1512 1512 1513 1513 1513 1514 1514 1515 1515 1516 1516 1516 1517 1517 1518 1518 1518 1519 1519
1521 1521 1520 1519 1519 1518 1518 1517 1517 1516 1516 1516 1515 1515 1515 1514 1514 1513 1513 1512 1511 1511 1512 1513 1513 1513 1514 1514 1514 1514 1515 1515 1515 1516 1516 1517 1517 1517 1518 1518 1519 1519 1520
1521 1521 1521 1520 1520 1519 1519 1518 1518 1517 1517 1517 1516 1516 1516 1516 1515 1515 1515 1514 1514 1514 1514 1514 1514 1514 1514 1514 1515 1515 1515 1516 1516 1516 1516 1517 1517 1517 1518 1518 1519 1519 1520
1522 1522 1522 1521 1521 1520 1520 1519 1519 1518 1518 1518 1517 1517 1517 1517 1516 1516 1516 1515 1515 1515 1515 1515 1515 1515 1515 1515 1516 1516 1516 1516 1516 1516 1516 1517 1517 1518 1518 1518 1519 1519 1520
1523 1523 1522 1522 1522 1521 1521 1520 1520 1519 1519 1519 1518 1518 1518 1518 1517 1517 1517 1517 1517 1517 1516 1516 1516 1516 1516 1516 1516 1516 1516 1516 1516 1516 1516 1516 1517 1517 1518 1518 1518 1519 1519
1523 1523 1523 1523 1522 1522 1522 1521 1521 1520 1520 1520 1519 1519 1519 1518 1518 1518 1518 1518 1518 1518 1518 1518 1518 1517 1517 1517 1517 1517 1517 1517 1516 1516 1516 1516 1516 1517 1517 1518 1518 1519 1519
1524 1524 1524 1524 1524 1523 1523 1523 1522 1522 1521 1521 1520 1520 1520 1519 1519 1519 1519 1519 1519 1519 1519 1519 1519 1519 1519 1518 1518 1517 1517 1517 1516 1516 1516 1516 1516 1517 1517 1518 1518 1518 1519
1525 1525 1525 1525 1525 1525 1524 1524 1524 1523 1522 1522 1522 1521 1521 1521 1520 1520 1520 1520 1520 1520 1520 1520 1520 1520 1520 1519 1519 1518 1517 1517 1516 1516 1516 1516 1516 1516 1517 1517 1518 1518 1518
1526 1526 1526 1526 1526 1526 1525 1525 1525 1524 1524 1524 1523 1523 1523 1522 1522 1522 1522 1522 1522 1522 1522 1522 1521 1521 1521 1520 1520 1519 1518 1517 1516 1516 1516 1516 1516 1517 1516 1517 1517 1518 1518
1527 1527 1527 1527 1527 1527 1527 1527 1526 1526 1526 1525 1525 1524 1524 1524 1524 1523 1523 1523 1524 1523 1523 1523 1523 1523 1522 1522 1521 1520 1519 1518 1518 1517 1517 1517 1517 1517 1516 1516 1516 1517 1517
1527 1527 1528 1528 1528 1528 1528 1528 1528 1527 1527 1527 1526 1526 1526 1525 1525 1525 1525 1525 1525 1525 1525 1525 1524 1524 1524 1523 1523 1522 1521 1520 1519 1519 1519 1518 1518 1517 1517 1516 1516 1516 1517
1527 1528 1528 1528 1529 1529 1529 1529 1529 1529 1528 1528 1528 1527 1527 1527 1526 1526 1526 1526 1526 1526 1526 1526 1526 1525 1525 1524 1524 1523 1522 1522 1521 1520 1520 1519 1519 1517 1516 1515 1514 1515 1516
1527 1528 1528 1529 1529 1529 1530 1530 1530 1530 1530 1530 1529 1529 1529 1528 1528 1528 1528 1528 1528 1528 1528 1527 1527 1527 1526 1526 1525 1524 1524 1523 1522 1521 1521 1520 1519 1518 1517 1515 1513 1513 1515
1526 1527 1528 1529 1529 1530 1531 1531 1531 1531 1531 1531 1531 1530 1530 1530 1529 1529 1529 1529 1529 1529 1529 1529 1528 1528 1528 1527 1527 1526 1525 1524 1524 1523 1522 1521 1520 1519 1518 1516 1514 1513 1516
1526 1527 1528 1529 1530 1530 1531 1532 1532 1532 1532 1532 1532 1532 1531 1531 1531 1531 1530 1530 1530 1530 1530 1530 1530 1529 1529 1529 1528 1528 1527 1526 1525 1525 1524 1523 1522 1521 1520 1519 1518 1517 1517
1526 1527 1528 1529 1530 1530 1531 1532 1532 1532 1532 1532 1532 1532 1532 1532 1532 1532 1531 1531 1531 1531 1531 1531 1531 1530 1530 1530 1530 1529 1529 1528 1527 1527 1526 1525 1524 1523 1522 1521 1520 1519 1518
1525 1526 1527 1528 1529 1530 1531 1532 1532 1533 1533 1533 1533 1533 1533 1533 1533 1533 1533 1532 1532 1532 1532 1531 1531 1531 1531 1531 1531 1531 1530 1530 1529 1528 1528 1527 1526 1525 1524 1523 1522 1521 1519
1524 1525 1527 1528 1529 1530 1531 1532 1532 1533 1533 1533 1533 1534 1534 1534 1534 1534 1534 1533 1533 1533 1532 1532 1532 1532 1532 1531 1532 1532 1531 1531 1530 1530 1529 1528 1528 1527 1526 1525 1524 1523 1522
1523 1524 1525 1527 1528 1529 1530 1532 1532 1533 1533 1533 1534 1534 1534 1534 1534 1534 1534 1534 1534 1534 1533 1533 1532 1533 1533 1533 1533 1533 1533 1533 1532 1531 1531 1530 1529 1529 1528 1527 1526 1525 1524
1521 1523 1524 1526 1527 1528 1530 1531 1532 1532 1533 1533 1534 1534 1534 1534 1534 1534 1534 1535 1534 1534 1534 1534 1534 1534 1534 1534 1533 1534 1534 1534 1533 1533 1532 1532 1531 1530 1530 1529 1528 1527 1526
1520 1522 1523 1525 1526 1527 1528 1529 1531 1531 1532 1533 1533 1534 1534 1534 1534 1534 1534 1534 1534 1535 1535 1535 1535 1535 1535 1534 1534 1534 1535 1535 1535 1534 1534 1533 1532 1532 1531 1530 1529 1528 1527
1518 1520 1522 1523 1524 1526 1527 1528 1530 1531 1532 1532 1533 1533 1534 1534 1534 1534 1534 1534 1534 1535 1535 1535 1535 1535 1535 1535 1535 1534 1535 1537 1536 1535 1535 1534 1534 1533 1532 1531 1530 1529 1528
1516 1519 1520 1522 1524 1525 1526 1527 1529 1530 1531 1532 1532 1533 1533 1533 1534 1534 1534 1534 1534 1534 1534 1535 1535 1535 1535 1536 1536 1536 1535 1535 1536 1536 1535 1535 1534 1534 1533 1532 1531 1530 1529
1515 1517 1519 1520 1522 1524 1525 1526 1527 1528 1528 1530 1531 1532 1532 1533 1533 1533 1534 1534 1534 1534 1534 1534 1535 1535 1535 1535 1535 1535 1536 1535 1535 1535 1536 1535 1535 1534 1533 1532 1531 1530 1530
1513 1515 1517 1519 1520 1522 1523 1524 1525 1526 1527 1528 1530 1530 1531 1531 1532 1532 1533 1533 1533 1533 1533 1534 1534 1534 1535 1535 1535 1535 1535 1535 1535 1534 1534 1535 1535 1534 1533 1532 1531 1530 1529
1512 1513 1515 1517 1518 1519 1521 1522 1523 1524 1525 1527 1527 1528 1529 1530 1530 1531 1531 1531 1532 1532 1533 1533 1533 1533 1534 1534 1534 1534 1534 1534 1534 1533 1533 1533 1533 1533 1533 1532 1531 1530 1529